Weather History for Silver Bay, MN

Change the Weather History Date:

Saturday, November 16, 2013

  Actual Average Record
Temperature  
Mean Temperature 34 °F -  
Max Temperature 44 °F 34 °F 44 °F (2004)
Min Temperature 24 °F 19 °F 0 °F (2002)
Degree Days  
Heating Degree Days 31    
Moisture  
Dew Point 36 °F    
Average Humidity 95    
Maximum Humidity 100    
Minimum Humidity 81    
Precipitation  
Precipitation 0.09 in - - ()
Sea Level Pressure  
Sea Level Pressure 29.44 in    
Wind  
Wind Speed 2 mph (ESE)    
Max Wind Speed 8 mph    
Max Gust Speed -    
Visibility 6 miles    
Events Fog , Rain    
Averages and records for this station are not official NWS values.
T = Trace of Precipitation, MM = Missing Value Source: NWS Daily Summary

Daily Weather History Graph

Daily Weather History Graph

Search for Another Location

Airport:

Trip Planner

Search our weather history database for the weather conditions in past years. The results will help you decide how hot, cold, wet, or windy it might be!

Date:

Astronomy

Nov. 16, 2013 Rise Set
Actual Time 7:11 AM CST 4:28 PM CST
Civil Twilight 6:38 AM CST 5:02 PM CST
Nautical Twilight 6:00 AM CST 5:39 PM CST
Astronomical Twilight 5:24 AM CST 6:15 PM CST
Moon 4:06 PM CST (11/16) 6:04 AM CST (11/16)
Length of Visible Light 10h 24m
Length of Day
9h 17m
Waxing Gibbous, 99% of the Moon is Illuminated
Nov 16
Waxing Gibbous
Nov 17
Full
Nov 25
Last Quarter
Dec 2
New
Dec 9
First Quarter

Hourly Weather History & Observations

Time (CST) Temp. Windchill Dew Point Humidity Pressure Visibility Wind Dir Wind Speed Gust Speed Precip Events Conditions
12:13 AM 24.8 °F - 24.8 °F 100% 29.63 in 10.0 mi Calm Calm - N/A   Clear
12:33 AM 24.8 °F - 24.8 °F 100% 29.63 in 7.0 mi Calm Calm - N/A   Clear
12:53 AM 26.6 °F - 26.6 °F 100% 29.62 in 5.0 mi Calm Calm - N/A   Clear
1:13 AM 26.6 °F - 26.6 °F 100% 29.61 in 5.0 mi Calm Calm - N/A   Clear
1:33 AM 26.6 °F - 26.6 °F 100% 29.60 in 5.0 mi Calm Calm - N/A   Clear
1:53 AM 26.6 °F - 26.6 °F 100% 29.60 in 7.0 mi Calm Calm - N/A   Clear
2:13 AM 26.6 °F - 26.6 °F 100% 29.60 in 7.0 mi Calm Calm - N/A   Clear
2:33 AM 26.6 °F - 26.6 °F 100% 29.59 in 7.0 mi Calm Calm - N/A   Clear
2:53 AM 26.6 °F - 26.6 °F 100% 29.59 in 7.0 mi Calm Calm - N/A   Clear
3:13 AM 26.6 °F - 26.6 °F 100% 29.57 in 10.0 mi Calm Calm - N/A   Clear
3:33 AM 28.4 °F - 28.4 °F 100% 29.56 in 5.0 mi Calm Calm - N/A   Clear
3:53 AM 32.0 °F - 32.0 °F 100% 29.55 in 10.0 mi Calm Calm - N/A   Clear
4:13 AM 32.0 °F - 32.0 °F 100% 29.55 in 7.0 mi Calm Calm - N/A   Clear
4:33 AM 32.0 °F - 32.0 °F 100% 29.55 in 7.0 mi Calm Calm - N/A   Clear
4:53 AM 33.8 °F - 33.8 °F 100% 29.54 in 7.0 mi Calm Calm - N/A   Clear
5:13 AM 33.8 °F - 33.8 °F 100% 29.53 in 10.0 mi Calm Calm - N/A   Clear
5:33 AM 35.6 °F - 35.6 °F 100% 29.52 in 10.0 mi Calm Calm - N/A   Clear
5:53 AM 37.4 °F 34.9 °F 35.6 °F 93% 29.51 in 10.0 mi SSE 3.5 mph - N/A   Clear
6:13 AM 37.4 °F - 35.6 °F 93% 29.51 in 10.0 mi Calm Calm - N/A   Clear
6:33 AM 37.4 °F 34.9 °F 35.6 °F 93% 29.50 in 10.0 mi SSE 3.5 mph - N/A   Clear
6:53 AM 39.2 °F 37.0 °F 37.4 °F 93% 29.50 in 10.0 mi SE 3.5 mph - N/A   Clear
7:13 AM 39.2 °F - 37.4 °F 93% 29.50 in 10.0 mi Calm Calm - N/A   Clear
7:33 AM 37.4 °F - 35.6 °F 93% 29.50 in 10.0 mi Calm Calm - N/A   Clear
7:53 AM 39.2 °F - 37.4 °F 93% 29.50 in 10.0 mi Calm Calm - N/A   Clear
8:13 AM 39.2 °F 35.9 °F 37.4 °F 93% 29.49 in 10.0 mi South 4.6 mph - N/A   Clear
8:33 AM 41.0 °F 37.1 °F 37.4 °F 87% 29.50 in 10.0 mi SSE 5.8 mph - N/A   Clear
8:53 AM 41.0 °F 37.1 °F 37.4 °F 87% 29.49 in 10.0 mi South 5.8 mph - N/A   Scattered Clouds
9:13 AM 41.0 °F 36.4 °F 37.4 °F 87% 29.49 in 10.0 mi South 6.9 mph - N/A   Scattered Clouds
9:33 AM 42.8 °F 38.6 °F 39.2 °F 87% 29.48 in 10.0 mi South 6.9 mph - N/A   Scattered Clouds
9:53 AM 42.8 °F 38.6 °F 39.2 °F 87% 29.48 in 10.0 mi South 6.9 mph - N/A   Scattered Clouds
10:13 AM 42.8 °F 38.0 °F 39.2 °F 87% 29.49 in 10.0 mi South 8.1 mph - N/A   Scattered Clouds
10:33 AM 42.8 °F 38.6 °F 39.2 °F 87% 29.48 in 10.0 mi South 6.9 mph - N/A   Mostly Cloudy
10:53 AM 42.8 °F 38.6 °F 39.2 °F 87% 29.48 in 10.0 mi South 6.9 mph - N/A   Scattered Clouds
11:13 AM 44.6 °F 40.7 °F 39.2 °F 81% 29.47 in 10.0 mi South 6.9 mph - N/A   Scattered Clouds
11:33 AM 44.6 °F 40.2 °F 39.2 °F 81% 29.47 in 10.0 mi South 8.1 mph - N/A   Scattered Clouds
11:53 AM 44.6 °F 40.2 °F 39.2 °F 81% 29.47 in 10.0 mi South 8.1 mph - N/A   Scattered Clouds
12:13 PM 44.6 °F 40.7 °F 39.2 °F 81% 29.46 in 10.0 mi South 6.9 mph - N/A   Scattered Clouds
12:33 PM 44.6 °F 40.7 °F 39.2 °F 81% 29.45 in 10.0 mi South 6.9 mph - N/A   Scattered Clouds
12:53 PM 44.6 °F 42.2 °F 39.2 °F 81% 29.44 in 10.0 mi South 4.6 mph - N/A   Scattered Clouds
1:13 PM 42.8 °F 40.1 °F 39.2 °F 87% 29.43 in 7.0 mi SSE 4.6 mph - N/A   Scattered Clouds
1:33 PM 42.8 °F 39.3 °F 39.2 °F 87% 29.41 in 7.0 mi SSE 5.8 mph - N/A   Scattered Clouds
1:54 PM 42.8 °F 39.3 °F 41.0 °F 93% 29.41 in 7.0 mi SE 5.8 mph - N/A   Scattered Clouds
2:13 PM 42.8 °F 39.3 °F 39.2 °F 87% 29.41 in 5.0 mi SSE 5.8 mph - N/A   Clear
2:33 PM 42.8 °F 40.1 °F 41.0 °F 93% 29.40 in 3.0 mi South 4.6 mph - N/A   Clear
2:53 PM 42.8 °F - 39.2 °F 87% 29.39 in 7.0 mi Calm Calm - N/A   Scattered Clouds
3:13 PM 42.8 °F 41.1 °F 39.2 °F 87% 29.39 in 7.0 mi SE 3.5 mph - N/A   Scattered Clouds
3:33 PM 42.8 °F 41.1 °F 39.2 °F 87% 29.38 in 7.0 mi East 3.5 mph - N/A   Scattered Clouds
3:53 PM 41.0 °F - 39.2 °F 93% 29.37 in 7.0 mi Calm Calm - N/A   Scattered Clouds
4:13 PM 41.0 °F 37.1 °F 39.2 °F 93% 29.37 in 7.0 mi ESE 5.8 mph - N/A   Scattered Clouds
4:33 PM 41.0 °F 39.0 °F 39.2 °F 93% 29.36 in 5.0 mi ESE 3.5 mph - N/A   Drizzle
4:53 PM 39.2 °F 35.9 °F 39.2 °F 100% 29.36 in 4.0 mi ESE 4.6 mph - 0.01 in Rain Light Rain
5:13 PM 39.2 °F 35.9 °F 39.2 °F 100% 29.35 in 3.0 mi East 4.6 mph - 0.03 in Rain Rain
5:34 PM 39.2 °F 37.0 °F 39.2 °F 100% 29.34 in 2.0 mi ENE 3.5 mph - 0.05 in Rain Light Rain
5:53 PM 39.2 °F 35.9 °F 39.2 °F 100% 29.34 in 1.8 mi NE 4.6 mph - N/A Rain Light Rain
6:13 PM 39.2 °F 37.0 °F 39.2 °F 100% 29.33 in 1.8 mi ENE 3.5 mph - 0.01 in   Drizzle
6:33 PM 39.2 °F 35.0 °F 39.2 °F 100% 29.32 in 1.2 mi ENE 5.8 mph - 0.01 in   Drizzle
6:53 PM 39.2 °F 35.0 °F 39.2 °F 100% 29.31 in 1.0 mi NE 5.8 mph - N/A   Drizzle
7:13 PM 39.2 °F 34.2 °F 39.2 °F 100% 29.31 in 1.5 mi NE 6.9 mph - 0.01 in   Drizzle
7:33 PM 39.2 °F 35.9 °F 39.2 °F 100% 29.31 in 0.8 mi NE 4.6 mph - 0.01 in   Light Drizzle
7:53 PM 39.2 °F 35.9 °F 39.2 °F 100% 29.30 in 0.2 mi NE 4.6 mph - N/A   Drizzle
8:13 PM 39.2 °F 35.0 °F 39.2 °F 100% 29.29 in 0.5 mi NNE 5.8 mph - 0.01 in Rain Light Rain
8:33 PM 39.2 °F 35.0 °F 39.2 °F 100% 29.29 in 0.5 mi ENE 5.8 mph - 0.01 in   Light Drizzle
8:53 PM 39.2 °F 35.0 °F 39.2 °F 100% 29.29 in 0.2 mi NE 5.8 mph - N/A   Overcast
9:13 PM 39.2 °F 34.2 °F 39.2 °F 100% 29.29 in 0.2 mi NE 6.9 mph - N/A   Overcast
9:33 PM 39.2 °F 37.0 °F 39.2 °F 100% 29.28 in 0.2 mi NE 3.5 mph - N/A Fog Fog
9:53 PM 39.2 °F 33.6 °F 39.2 °F 100% 29.28 in 0.8 mi NE 8.1 mph - N/A   Overcast
10:13 PM 39.2 °F 35.0 °F 39.2 °F 100% 29.27 in 1.0 mi NE 5.8 mph - N/A   Overcast
10:33 PM 39.2 °F 35.9 °F 39.2 °F 100% 29.27 in 1.2 mi NE 4.6 mph - N/A   Overcast
10:53 PM 39.2 °F 37.0 °F 39.2 °F 100% 29.27 in 1.2 mi NNE 3.5 mph - N/A   Overcast
11:13 PM 39.2 °F 35.0 °F 39.2 °F 100% 29.26 in 1.2 mi NNE 5.8 mph - N/A   Overcast
11:33 PM 39.2 °F - 39.2 °F 100% 29.26 in 1.2 mi Calm Calm - N/A   Overcast
11:53 PM 39.2 °F 37.0 °F 39.2 °F 100% 29.27 in 0.8 mi ENE 3.5 mph - N/A   Overcast